Regional Weather Roundup
Issued by NWS Northern Indiana

Home | Current Version | Previous Version | Text Only | Print | Product List | Glossary Off
Versions: 1 2 3 4 5 6 7 8 9 10 11 12 13 14 15 16 17 18 19 20 21 22 23 24 25 26 27 28 29 30 31 32 33 34 35 36 37 38 39 40 41 42 43 44 45 46 47 48 49 50

000
ASUS43 KIWX 282310
RWRIWX

KIWX WEATHER ROUNDUP
NATIONAL WEATHER SERVICE NORTHERN INDIANA
700 PM EDT THU APR 28 2016

NOTE: "FAIR" INDICATES FEW OR NO CLOUDS BELOW 12,000 FEET WITH NO
SIGNIFICANT WEATHER AND/OR OBSTRUCTIONS TO VISIBILITY.

* THESE STATIONS ARE NOT UNDER NWS QUALITY CONTROL. THEY ALSO MAY NOT
  REPORT WEATHER SUCH AS PRECIPITATION OR FOG.

INZ001>027-290000-
NORTHERN INDIANA

CITY           SKY/WX    TMP DP  RH WIND       PRES   REMARKS
GARY*          CLOUDY    48  48 100 N7        29.94R
VALPARAISO     CLOUDY    54  47  77 N5        29.93R
MICHIGAN CITY* CLOUDY    54  46  76 CALM      29.93S
LAPORTE*       CLOUDY    55  49  83 E7        29.93S
KNOX*          CLOUDY    54  43  66 E3        29.92R
SOUTH BEND     CLOUDY    51  45  79 SE6       29.94R
ELKHART*       CLOUDY    54  48  82 SE8       29.94R
GOSHEN         CLOUDY    53  45  74 E7        29.93R
MONTICELLO*    CLOUDY    58  50  75 NE3       29.90R
LOGANSPORT*    CLOUDY    55  50  82 E5        29.92R
ROCHESTER*     CLOUDY    55  52  88 E6        29.93R
WARSAW*        CLOUDY    52  46  82 CALM      29.93R
ANGOLA*        CLOUDY    48  36  61 E9        29.93S
FORT WAYNE     CLOUDY    50  47  89 E8        29.94R
HUNTINGTON*    CLOUDY   N/A N/A N/A E5        29.93R
PERU/GRISSOM   CLOUDY    55  51  86 E8        29.90R
MARION*        CLOUDY    53  49  85 NE7       29.92S

$$
INZ028>050-290000-
CENTRAL INDIANA

CITY           SKY/WX    TMP DP  RH WIND       PRES   REMARKS
LAFAYETTE      CLOUDY    61  53  75 N9        29.89R
KOKOMO*        CLOUDY    54  48  82 E7        29.91S
MUNCIE*        CLOUDY    55  51  86 NE8       29.90S
INDIANAPOLIS   PTSUNNY   67  56  67 N10       29.87R

$$
MIZ043>046-050>051-056>058-064>065-071>073-077>080-290000-
SOUTHWEST LOWER MICHIGAN

CITY           SKY/WX    TMP DP  RH WIND       PRES   REMARKS
BATTLE CREEK   CLOUDY    46  37  71 E12       29.97R
BENTON HARBOR  CLOUDY    53  44  71 E6        29.94R
COLDWATER*     CLOUDY    48  39  70 E7        29.95R
HILLSDALE*     CLOUDY    46  36  66 E9        29.94S
HOLLAND        CLOUDY    44  38  79 E10       29.98R
GRAND RAPIDS   CLOUDY    44  37  76 E13       29.98S
KALAMAZOO      CLOUDY    48  38  68 E7        29.96R
STURGIS*       CLOUDY    50  42  74 E8        29.94R
THREE RIVERS*  CLOUDY    51  41  70 E8        29.95R

$$
OHZ001>008-015>018-024>025-290000-
NORTHWEST OHIO

CITY           SKY/WX    TMP DP  RH WIND       PRES   REMARKS
WAUSEON*         N/A     46 N/A N/A E17       29.95R
DEFIANCE       CLOUDY    51  38  60 NE10      29.93S
FINDLAY        CLOUDY    51  41  68 NE9       29.91R
TOLEDO EXPRESS CLOUDY    46  36  68 E16       29.95R
TOLEDO METCALF CLOUDY    47  37  68 NE14G23   29.96R
LIMA           CLOUDY    50  47  89 NE10      29.91R

$$
AND FOR LAKE MICHIGAN COASTAL AND OPEN LAKE BUOY OBSERVATIONS

STATION/POSITION TEMP    WIND        PRES    VSBY  WAVE
                 AIR SEA DIR/SP/G                  HT/PER
                 (F)     (DEG/KT/KT) (MB)    (MI)  (FT/S)
CALUMET HARBOR    45                 1013.0R
MICHIGAN CITY     47     350/  9/ 10   N/A
BURNS HARBOR      46      20/ 10/ 12 1013.9R
SAINT JOSEPH      53      CALM  /  5 1014.9R
SOUTH LAKE BUOY   41 40   60/ 12/ 12 1014.9R         2/ 4
4 MI NW BRIDGMAN  52 48  140/  4/  6   N/A           1/ 4

$$
&&



USA.gov is the U.S. government's official web portal to all federal, state and local government web resources and services.